When you browse on this site, cookies collect data to enhance your experience and personalize the content and advertising you see.
Visit our Privacy Policy to learn more. By continuing to use the site, you agree to this use of cookies and data.
  • In Schweiz
  • Länderverzeichnis
  • Für 7 Tage
  • Wassertemperatur
  • Satellitenkarten
  • Wetterkarte
  • Widgets
  • user-avatar
    Anmelden

    Stündliche Wetter Manaus

    Heute, 18 November, Sonntag

    Zeit Temperatur Niederschläge Wind Luftdruck Luftfeuchtigkeit
    00:00 +26°C° 0 mm 0 m/S 753 mmHg 72%
    01:00 +26°C° 0 mm 0 m/S 752 mmHg 73%
    02:00 +26°C° 0 mm 0 m/S 753 mmHg 76%
    03:00 +25°C° 0 mm 0 m/S 753 mmHg 77%
    04:00 +27°C° 0 mm 1 m/S 753 mmHg 78%
    05:00 +27°C° 0 mm 1 m/S 753 mmHg 79%
    06:00 +29°C° 0 mm 1 m/S 753 mmHg 70%
    07:00 +30°C° 0 mm 1 m/S 754 mmHg 62%
    08:00 +32°C° 0 mm 2 m/S 754 mmHg 53%
    09:00 +35°C° 0 mm 2 m/S 754 mmHg 46%
    10:00 +38°C° 0 mm 2 m/S 754 mmHg 39%
    11:00 +40°C° 0 mm 3 m/S 754 mmHg 33%
    12:00 +40°C° 0 mm 2 m/S 752 mmHg 31%
    13:00 +41°C° 0 mm 2 m/S 751 mmHg 29%
    14:00 +42°C° 0 mm 2 m/S 750 mmHg 28%
    15:00 +40°C° 0 mm 1 m/S 750 mmHg 31%
    16:00 +39°C° 0 mm 1 m/S 750 mmHg 34%
    17:00 +35°C° 0 mm 0 m/S 749 mmHg 37%
    18:00 +33°C° 0 mm 0 m/S 750 mmHg 39%
    19:00 +32°C° 0 mm 0 m/S 751 mmHg 42%
    20:00 +30°C° 0 mm 0 m/S 751 mmHg 44%
    21:00 +29°C° 0 mm 0 m/S 752 mmHg 45%
    22:00 +29°C° 0 mm 0 m/S 752 mmHg 47%
    23:00 +28°C° 0 mm 0 m/S 753 mmHg 48%

    Morgen, 19 November, Montag

    Zeit Temperatur Niederschläge Wind Luftdruck Luftfeuchtigkeit
    00:00 +27°C° 0 mm 0 m/S 752 mmHg 51%
    01:00 +29°C° 0 mm 1 m/S 752 mmHg 54%
    02:00 +28°C° 0 mm 1 m/S 752 mmHg 57%
    03:00 +26°C° 0 mm 0 m/S 752 mmHg 61%
    04:00 +26°C° 0 mm 0 m/S 752 mmHg 65%
    05:00 +25°C° 0 mm 0 m/S 752 mmHg 69%
    06:00 +27°C° 0 mm 0 m/S 753 mmHg 66%
    07:00 +28°C° 0 mm 0 m/S 753 mmHg 64%
    08:00 +30°C° 0 mm 0 m/S 754 mmHg 61%
    09:00 +34°C° 0.3 mm 1 m/S 754 mmHg 52%
    10:00 +36°C° 0.3 mm 1 m/S 753 mmHg 44%
    11:00 +39°C° 0.3 mm 2 m/S 753 mmHg 36%
    12:00 +39°C° 0 mm 2 m/S 752 mmHg 34%
    13:00 +40°C° 0 mm 2 m/S 751 mmHg 33%
    14:00 +40°C° 0 mm 2 m/S 750 mmHg 32%
    15:00 +40°C° 0 mm 1 m/S 750 mmHg 34%
    16:00 +39°C° 0 mm 1 m/S 750 mmHg 36%
    17:00 +37°C° 0 mm 1 m/S 750 mmHg 38%
    18:00 +36°C° 0 mm 1 m/S 750 mmHg 41%
    19:00 +34°C° 0 mm 1 m/S 751 mmHg 45%
    20:00 +33°C° 0 mm 1 m/S 751 mmHg 48%
    21:00 +32°C° 0 mm 1 m/S 752 mmHg 51%
    22:00 +30°C° 0 mm 0 m/S 752 mmHg 53%
    23:00 +29°C° 0 mm 0 m/S 752 mmHg 55%

    übermorgen, 20 November, Dienstag

    Zeit Temperatur Niederschläge Wind Luftdruck Luftfeuchtigkeit
    00:00 +30°C° 0.2 mm 1 m/S 752 mmHg 60%
    01:00 +29°C° 0.2 mm 1 m/S 751 mmHg 64%
    02:00 +29°C° 0.2 mm 1 m/S 751 mmHg 69%
    03:00 +28°C° 0.7 mm 1 m/S 751 mmHg 74%
    04:00 +27°C° 0.7 mm 1 m/S 751 mmHg 79%
    05:00 +27°C° 0.7 mm 1 m/S 752 mmHg 84%
    06:00 +28°C° 0.1 mm 1 m/S 752 mmHg 80%
    07:00 +29°C° 0.1 mm 1 m/S 753 mmHg 75%
    08:00 +31°C° 0.1 mm 2 m/S 754 mmHg 71%
    09:00 +32°C° 0 mm 2 m/S 754 mmHg 63%
    10:00 +35°C° 0 mm 2 m/S 754 mmHg 54%
    11:00 +37°C° 0 mm 2 m/S 754 mmHg 46%
    12:00 +38°C° 0 mm 2 m/S 753 mmHg 43%
    13:00 +39°C° 0 mm 2 m/S 752 mmHg 41%
    14:00 +39°C° 0 mm 1 m/S 750 mmHg 39%
    15:00 +37°C° 0 mm 1 m/S 750 mmHg 42%
    16:00 +36°C° 0 mm 1 m/S 750 mmHg 44%
    17:00 +33°C° 0 mm 0 m/S 750 mmHg 47%
    18:00 +32°C° 0.1 mm 0 m/S 750 mmHg 52%
    19:00 +31°C° 0.1 mm 0 m/S 751 mmHg 56%
    20:00 +29°C° 0.1 mm 0 m/S 752 mmHg 60%
    21:00 +29°C° 0 mm 0 m/S 752 mmHg 62%
    22:00 +28°C° 0 mm 0 m/S 752 mmHg 64%
    23:00 +28°C° 0 mm 0 m/S 752 mmHg 66%

    21 November, Mittwoch

    Zeit Temperatur Niederschläge Wind Luftdruck Luftfeuchtigkeit
    00:00 +27°C° 0.8 mm 0 m/S 752 mmHg 71%
    01:00 +28°C° 0.8 mm 1 m/S 751 mmHg 77%
    02:00 +27°C° 0.8 mm 1 m/S 751 mmHg 82%
    03:00 +27°C° 0.1 mm 1 m/S 751 mmHg 84%
    04:00 +25°C° 0.1 mm 0 m/S 752 mmHg 85%
    05:00 +25°C° 0.1 mm 0 m/S 752 mmHg 86%
    06:00 +26°C° 0.4 mm 0 m/S 753 mmHg 82%
    07:00 +27°C° 0.4 mm 0 m/S 754 mmHg 79%
    08:00 +30°C° 0.4 mm 1 m/S 755 mmHg 75%
    09:00 +31°C° 1.7 mm 1 m/S 754 mmHg 74%
    10:00 +32°C° 1.7 mm 1 m/S 754 mmHg 73%
    11:00 +32°C° 1.7 mm 1 m/S 754 mmHg 72%
    12:00 +31°C° 0.7 mm 0 m/S 753 mmHg 66%
    13:00 +32°C° 0.7 mm 0 m/S 752 mmHg 61%
    14:00 +34°C° 0.7 mm 0 m/S 751 mmHg 56%
    15:00 +33°C° 0.2 mm 0 m/S 751 mmHg 58%
    16:00 +32°C° 0.2 mm 0 m/S 751 mmHg 60%
    17:00 +31°C° 0.2 mm 0 m/S 751 mmHg 62%
    18:00 +30°C° 0 mm 0 m/S 751 mmHg 67%
    19:00 +29°C° 0 mm 0 m/S 752 mmHg 72%
    20:00 +29°C° 0 mm 1 m/S 753 mmHg 77%
    21:00 +29°C° 0.1 mm 1 m/S 753 mmHg 79%
    22:00 +29°C° 0.1 mm 1 m/S 753 mmHg 81%
    23:00 +28°C° 0.1 mm 1 m/S 753 mmHg 83%

    22 November, Donnerstag

    Zeit Temperatur Niederschläge Wind Luftdruck Luftfeuchtigkeit
    00:00 +28°C° 0.1 mm 1 m/S 752 mmHg 85%
    01:00 +27°C° 0.1 mm 1 m/S 752 mmHg 87%
    02:00 +27°C° 0.1 mm 1 m/S 751 mmHg 90%
    03:00 +27°C° 0.1 mm 1 m/S 751 mmHg 91%
    04:00 +27°C° 0.1 mm 1 m/S 751 mmHg 92%
    05:00 +26°C° 0.1 mm 1 m/S 752 mmHg 93%
    06:00 +28°C° 0.3 mm 1 m/S 752 mmHg 88%
    07:00 +27°C° 0.3 mm 0 m/S 753 mmHg 83%
    08:00 +28°C° 0.3 mm 0 m/S 754 mmHg 78%
    09:00 +29°C° 2.2 mm 0 m/S 754 mmHg 77%
    10:00 +29°C° 2.2 mm 0 m/S 753 mmHg 76%
    11:00 +30°C° 2.2 mm 0 m/S 753 mmHg 75%
    12:00 +30°C° 1.6 mm 0 m/S 752 mmHg 73%
    13:00 +30°C° 1.6 mm 0 m/S 751 mmHg 71%
    14:00 +31°C° 1.6 mm 0 m/S 751 mmHg 69%
    15:00 +30°C° 0.5 mm 0 m/S 751 mmHg 72%
    16:00 +29°C° 0.5 mm 0 m/S 751 mmHg 75%
    17:00 +29°C° 0.5 mm 0 m/S 751 mmHg 78%
    18:00 +28°C° 0.5 mm 0 m/S 751 mmHg 82%
    19:00 +27°C° 0.5 mm 0 m/S 752 mmHg 86%
    20:00 +26°C° 0.5 mm 0 m/S 753 mmHg 90%
    21:00 +25°C° 0.1 mm 0 m/S 753 mmHg 91%
    22:00 +25°C° 0.1 mm 0 m/S 753 mmHg 92%
    23:00 +25°C° 0.1 mm 0 m/S 753 mmHg 93%

    23 November, Freitag

    Zeit Temperatur Niederschläge Wind Luftdruck Luftfeuchtigkeit
    00:00 +25°C° 0.1 mm 0 m/S 752 mmHg 93%
    01:00 +25°C° 0.1 mm 0 m/S 752 mmHg 94%
    02:00 +24°C° 0.1 mm 0 m/S 751 mmHg 94%
    03:00 +24°C° 0.1 mm 0 m/S 751 mmHg 94%
    04:00 +24°C° 0.1 mm 0 m/S 751 mmHg 94%
    05:00 +24°C° 0.1 mm 0 m/S 751 mmHg 95%
    06:00 +25°C° 0.1 mm 0 m/S 752 mmHg 92%
    07:00 +25°C° 0.1 mm 0 m/S 753 mmHg 90%
    08:00 +26°C° 0.1 mm 0 m/S 754 mmHg 88%
    09:00 +27°C° 0.7 mm 0 m/S 753 mmHg 82%
    10:00 +29°C° 0.7 mm 0 m/S 753 mmHg 76%
    11:00 +30°C° 0.7 mm 0 m/S 753 mmHg 70%
    12:00 +32°C° 0.9 mm 1 m/S 752 mmHg 70%
    13:00 +32°C° 0.9 mm 1 m/S 751 mmHg 71%
    14:00 +32°C° 0.9 mm 2 m/S 751 mmHg 71%
    15:00 +32°C° 0.2 mm 1 m/S 750 mmHg 72%
    16:00 +31°C° 0.2 mm 1 m/S 750 mmHg 72%
    17:00 +31°C° 0.2 mm 1 m/S 750 mmHg 73%
    18:00 +30°C° 0.1 mm 1 m/S 751 mmHg 78%
    19:00 +29°C° 0.1 mm 1 m/S 752 mmHg 83%
    20:00 +28°C° 0.1 mm 1 m/S 752 mmHg 89%
    21:00 +25°C° 0.2 mm 0 m/S 752 mmHg 90%
    22:00 +25°C° 0.2 mm 0 m/S 752 mmHg 91%
    23:00 +25°C° 0.2 mm 0 m/S 753 mmHg 92%
    Mehr zeigen